{"data":{"norad_id":46459,"epoch":"2026-05-25T04:33:03.485088Z","epoch_age_seconds":72756,"freshness":"FRESH","line1":"1 46459U 20065F   26145.18962367  .00080213  00000+0  74922-3 0  9991","line2":"2 46459  97.2307 201.2018 0012519 134.5463 225.6822 15.66947011316339","mean_motion":15.66947011,"eccentricity":0.0012519,"inclination_deg":97.2307,"raan_deg":201.2018,"arg_perigee_deg":134.5463,"mean_anomaly_deg":225.6822,"bstar":0.00074922,"rev_number":31633,"period_min":91.898449015262,"perigee_km":359.19993866045,"apogee_km":376.0900275898,"semimajor_km":6745.7819831251,"source":"CELESTRAK","updated_at":"2026-05-25T13:37:56.321393Z"}}